Location: Nelson
(41.2830°S, 173.2830°E)
Time: 17:47:42
(UTC+13:00)

Cosmos 2333 Rocket - Pass Details

Date: 24 January 2019
Orbit: 840 x 862 km, 70.8° (Epoch: 18 October)

Event Time Altitude Azimuth Distance (km) Brightness Sun altitude
Exits shadow 23:33:24 48° 57° (ENE) 1,119 2.4 -22.9°
Maximum altitude 23:33:51 50° 73° (ENE) 1,104 2.4 -22.9°
Drops below altitude 10° 23:39:26 10° 146° (SE) 2,527 5.0 -23.5°
Sets 23:41:58 0° 150° (SSE) 3,468 5.8 -23.7°
